Location: ???? ?????????
(31.1304°N, 31.7111°E)
Time: 01:52:37
(UTC+00:00)

Geosat - Pass Details

Date: 29 October 2020
Orbit: 763 x 766 km, 108.0° (Epoch: 25 November)

Event Time Altitude Azimuth Distance (km) Brightness Sun altitude
Exits shadow 16:12:40 - 30° (NNE) 2,589 6.4 -14.6°
Reaches altitude 10° 16:13:23 10° 32° (NNE) 2,305 6.1 -14.8°
Maximum altitude 16:18:21 60° 112° (ESE) 873 4.0 -15.8°
Drops below altitude 10° 16:23:17 10° 192° (SSW) 2,293 6.7 -16.9°
Sets 16:25:35 0° 196° (SSW) 3,216 7.5 -17.4°
